La Grange, TX

6:26 PM CST on November 21, 2019 (GMT -0600)
La Grange

Weather History for K3T5 - August, 2019

Change the Weather History Date:

Monday, August 19, 2019

  Actual Average (WUND) Record (WUND)
Temperature  
Mean Temperature 88 °F -  
Max Temperature 100 °F - - (-1)
Min Temperature 77 °F - - (-1)
Cooling Degree Days 24    
Growing Degree Days 38 (Base 50)    
Moisture  
Dew Point 77 °F    
Average Humidity 74    
Maximum Humidity 100    
Minimum Humidity 41    
Precipitation  
Precipitation 0.00 in - - ()
Sea Level Pressure  
Sea Level Pressure 29.94 in    
Wind  
Wind Speed 3 mph (SSE)    
Max Wind Speed 12 mph    
Max Gust Speed 17 mph    
Visibility 8 miles    
Events Fog    
Averages and records for this station are not official NWS values.
T = Trace of Precipitation, MM = Missing Value Source: NWS Daily Summary

Daily Weather History Graph

Daily Weather History Graph

Search for Another Location

Airport or City:

Astronomy

Aug. 19, 2019 Rise Set
Actual Time 6:57 AM CDT 8:04 PM CDT
Civil Twilight 6:32 AM CDT 8:29 PM CDT
Nautical Twilight 6:03 AM CDT 8:59 PM CDT
Astronomical Twilight 5:32 AM CDT 9:29 PM CDT
Moon 10:43 PM CDT (8/19) 10:25 AM CDT (8/19)
Length of Visible Light 13h 57m
Length of Day
13h 07m
Waning Gibbous, 85% of the Moon is Illuminated
Aug 19
Waning Gibbous
Aug 23
Last Quarter
Aug 30
New
Sep 5
First Quarter
Sep 13
Full

Hourly Weather History & Observations

Time (CDT) Temp. Heat Index Dew Point Humidity Pressure Visibility Wind Dir Wind Speed Gust Speed Precip Events Conditions
12:15 AM 82.0 °F 91.6 °F 79.0 °F 90% 29.91 in 10.0 mi South 4.6 mph - N/A   Clear
12:35 AM 81.7 °F 91.3 °F 79.3 °F 93% 29.92 in 7.0 mi South 3.5 mph - N/A   Clear
12:55 AM 81.5 °F 91.0 °F 79.7 °F 94% 29.92 in 7.0 mi South 3.5 mph - N/A   Clear
1:15 AM 81.1 °F 90.3 °F 79.9 °F 96% 29.92 in 10.0 mi Calm Calm - N/A   Clear
1:35 AM 80.6 °F 88.9 °F 80.1 °F 98% 29.92 in 10.0 mi Calm Calm - N/A   Scattered Clouds
1:55 AM 80.6 °F 89.3 °F 80.6 °F 100% 29.92 in 10.0 mi Calm Calm - N/A   Scattered Clouds
2:15 AM 80.1 °F 87.4 °F 80.1 °F 100% 29.92 in 10.0 mi Calm Calm - N/A   Clear
2:35 AM 79.7 °F - 79.7 °F 100% 29.92 in 10.0 mi Calm Calm - N/A   Clear
2:55 AM 79.0 °F - 79.0 °F 100% 29.92 in 7.0 mi Calm Calm - N/A   Clear
3:15 AM 79.2 °F - 79.2 °F 100% 29.92 in 10.0 mi Calm Calm - N/A   Clear
3:35 AM 79.0 °F - 79.0 °F 100% 29.92 in 7.0 mi Calm Calm - N/A   Scattered Clouds
3:55 AM 79.0 °F - 79.0 °F 100% 29.93 in 7.0 mi Calm Calm - N/A   Scattered Clouds
4:15 AM 78.8 °F - 78.8 °F 100% 29.93 in 7.0 mi Calm Calm - N/A   Scattered Clouds
4:35 AM 78.4 °F - 78.4 °F 100% 29.93 in 5.0 mi Calm Calm - N/A   Mostly Cloudy
4:55 AM 78.3 °F - 78.3 °F 100% 29.93 in 7.0 mi Calm Calm - N/A   Mostly Cloudy
5:15 AM 77.9 °F - 77.9 °F 100% 29.94 in 5.0 mi Calm Calm - N/A   Mostly Cloudy
5:35 AM 77.7 °F - 77.7 °F 100% 29.94 in 4.0 mi Calm Calm - N/A   Mostly Cloudy
5:55 AM 77.2 °F - 77.2 °F 100% 29.94 in 4.0 mi Calm Calm - N/A   Mostly Cloudy
6:15 AM 77.2 °F - 77.2 °F 100% 29.95 in 5.0 mi Calm Calm - N/A   Scattered Clouds
6:35 AM 77.9 °F - 77.9 °F 100% 29.95 in 2.5 mi Calm Calm - N/A   Scattered Clouds
6:55 AM 77.0 °F - 77.0 °F 100% 29.96 in 1.5 mi Calm Calm - N/A   Overcast
7:15 AM 77.5 °F - 77.5 °F 100% 29.96 in 3.0 mi Calm Calm - N/A   Overcast
7:35 AM 78.4 °F - 78.4 °F 100% 29.97 in 5.0 mi Calm Calm - N/A   Overcast
7:55 AM 79.3 °F - 79.3 °F 100% 29.97 in 4.0 mi Calm Calm - N/A   Overcast
8:15 AM 80.1 °F 87.4 °F 80.1 °F 100% 29.99 in 5.0 mi Calm Calm - N/A   Overcast
8:35 AM 80.8 °F 90.0 °F 80.8 °F 100% 29.99 in 5.0 mi Calm Calm - N/A   Overcast
8:55 AM 81.5 °F 92.6 °F 81.5 °F 100% 29.99 in 5.0 mi Calm Calm - N/A   Overcast
9:15 AM 82.6 °F 96.8 °F 82.6 °F 100% 29.99 in 0.5 mi South 3.5 mph - N/A Fog Fog
9:35 AM 84.7 °F 100.2 °F 81.1 °F 89% 29.99 in 2.0 mi South 3.5 mph - N/A   Overcast
9:55 AM 86.4 °F 101.5 °F 80.1 °F 81% 30.00 in 0.8 mi Calm Calm - N/A   Light Drizzle
10:15 AM 86.7 °F 100.9 °F 79.2 °F 78% 29.99 in 10.0 mi SSW 3.5 mph - N/A   Mostly Cloudy
10:35 AM 89.1 °F 103.2 °F 78.1 °F 70% 29.99 in 10.0 mi South 4.6 mph - N/A   Scattered Clouds
10:55 AM 91.0 °F 106.9 °F 78.6 °F 67% 29.99 in 10.0 mi SW 3.5 mph - N/A   Scattered Clouds
11:15 AM 92.3 °F 106.2 °F 77.0 °F 61% 29.99 in 10.0 mi South 3.5 mph - N/A   Scattered Clouds
11:35 AM 92.3 °F 105.5 °F 76.6 °F 60% 29.99 in 10.0 mi SW 5.8 mph - N/A   Scattered Clouds
11:55 AM 93.4 °F 105.5 °F 75.7 °F 56% 29.99 in 10.0 mi Calm Calm - N/A   Scattered Clouds
12:15 PM 94.8 °F 106.9 °F 75.4 °F 53% 29.98 in 10.0 mi SE 3.5 mph - N/A   Clear
12:35 PM 95.0 °F 106.7 °F 74.7 °F 52% 29.97 in 10.0 mi Calm Calm - N/A   Scattered Clouds
12:55 PM 95.9 °F 105.9 °F 73.4 °F 48% 29.96 in 10.0 mi SSW 3.5 mph - N/A   Scattered Clouds
1:15 PM 96.1 °F 105.6 °F 73.0 °F 47% 29.96 in 10.0 mi Calm Calm - N/A   Scattered Clouds
1:35 PM 97.0 °F 107.7 °F 73.9 °F 47% 29.95 in 10.0 mi SSW 5.8 mph - N/A   Scattered Clouds
1:55 PM 98.1 °F 108.0 °F 72.9 °F 44% 29.95 in 10.0 mi SSW 4.6 mph 17.3 mph N/A   Clear
2:15 PM 99.1 °F 109.7 °F 72.9 °F 43% 29.93 in 10.0 mi SSE 5.8 mph - N/A   Scattered Clouds
2:35 PM 98.6 °F 109.2 °F 73.4 °F 44% 29.93 in 10.0 mi SE 4.6 mph - N/A   Scattered Clouds
2:55 PM 100.0 °F 111.0 °F 72.9 °F 42% 29.92 in 10.0 mi SSE 9.2 mph - N/A   Scattered Clouds
3:15 PM 99.0 °F 110.1 °F 73.8 °F 44% 29.91 in 10.0 mi ESE 9.2 mph - N/A   Scattered Clouds
3:35 PM 98.4 °F 109.6 °F 73.6 °F 45% 29.91 in 10.0 mi ESE 5.8 mph - N/A   Scattered Clouds
3:55 PM 99.5 °F 111.4 °F 73.9 °F 44% 29.90 in 10.0 mi SE 8.1 mph - N/A   Clear
4:15 PM 96.8 °F 106.6 °F 73.2 °F 46% 29.90 in 10.0 mi SSE 6.9 mph - N/A   Clear
4:55 PM 100.0 °F 111.0 °F 73.0 °F 42% 29.89 in 10.0 mi SSE 8.1 mph - N/A   Clear
5:15 PM 99.5 °F 108.9 °F 71.8 °F 41% 29.89 in 10.0 mi South 4.6 mph - N/A   Clear
5:35 PM 99.1 °F 110.5 °F 73.6 °F 44% 29.88 in 10.0 mi SE 9.2 mph - N/A   Clear
5:55 PM 99.3 °F 110.1 °F 73.2 °F 43% 29.89 in 10.0 mi SSE 9.2 mph 16.1 mph N/A   Clear
6:15 PM 99.3 °F 111.0 °F 73.6 °F 44% 29.90 in 10.0 mi SE 9.2 mph 17.3 mph N/A   Clear
6:35 PM 92.7 °F 104.3 °F 75.6 °F 57% 29.90 in 10.0 mi ESE 9.2 mph - N/A   Scattered Clouds
6:55 PM 95.0 °F 106.7 °F 74.8 °F 52% 29.90 in 10.0 mi ESE 6.9 mph - N/A   Clear
7:35 PM 95.0 °F 105.2 °F 73.6 °F 50% 29.90 in 10.0 mi SE 6.9 mph - N/A   Clear
7:55 PM 93.6 °F 103.2 °F 73.6 °F 52% 29.91 in 10.0 mi SSE 9.2 mph 16.1 mph N/A   Clear
8:15 PM 92.3 °F 102.2 °F 74.1 °F 55% 29.91 in 10.0 mi SSE 9.2 mph - N/A   Scattered Clouds
8:35 PM 91.2 °F 100.8 °F 74.3 °F 57% 29.91 in 10.0 mi SSE 11.5 mph 17.3 mph N/A   Clear
8:55 PM 90.3 °F 101.0 °F 75.0 °F 61% 29.93 in 10.0 mi SSE 9.2 mph 16.1 mph N/A   Clear
9:15 PM 89.2 °F 99.5 °F 75.4 °F 63% 29.93 in 10.0 mi SSE 9.2 mph - N/A   Clear
9:35 PM 88.5 °F 99.4 °F 75.7 °F 66% 29.94 in 10.0 mi SSE 6.9 mph - N/A   Clear
9:55 PM 87.8 °F 98.1 °F 75.7 °F 67% 29.96 in 10.0 mi SSE 6.9 mph - N/A   Clear
10:35 PM 86.4 °F 97.8 °F 77.2 °F 74% 29.98 in 10.0 mi SSE 4.6 mph - N/A   Clear
10:55 PM 86.0 °F 97.8 °F 77.5 °F 76% 29.99 in 10.0 mi SSE 6.9 mph - N/A   Clear
11:15 PM 85.3 °F 96.7 °F 77.9 °F 78% 29.99 in 10.0 mi SSE 5.8 mph - N/A   Clear
11:35 PM 85.1 °F 96.7 °F 78.1 °F 79% 29.99 in 10.0 mi SSE 5.8 mph - N/A   Clear
11:55 PM 84.2 °F 95.3 °F 78.3 °F 82% 30.00 in 10.0 mi SSE 4.6 mph - N/A   Clear